DW5533 Weather Reports


Display with metric or nautical units.
time (UTC)temp
F
wind
direction
speed
MPH
gust
MPH
rain 1hr
in
rain 24hr
in
rain mn
in
humidity
%
barometer
mb
20260507181518 54 279 1.0 5.0 0.00 0.01 0.01 45 1005.2
20260507180016 53 245 1.0 10.0 0.00 0.01 0.01 44 1005.1
20260507174514 53 189 0.0 9.0 0.00 0.01 0.01 46 1005.2
20260507173011 52 327 1.0 6.0 0.00 0.01 0.01 48 1005.5
20260507171509 52 20 3.0 13.0 0.00 0.01 0.01 47 1005.6
20260507170006 51 317 0.0 5.0 0.00 0.01 0.01 51 1005.6
20260507164505 50 213 1.0 6.0 0.00 0.01 0.01 54 1005.9
20260507163002 51 240 0.0 7.0 0.00 0.01 0.01 59 1006.2
20260507161659 50 265 0.0 5.0 0.00 0.01 0.01 64 1006.1
20260507160106 49 244 0.0 5.0 0.00 0.01 0.01 69 1006.2
20260507154553 48 188 0.0 3.0 0.00 0.01 0.01 76 1006.3
20260507153053 46 131 0.0 3.0 0.00 0.01 0.01 90 1006.4
20260507151546 45 304 0.0 2.0 0.01 0.01 0.01 97 1006.3
20260507150041 44 304 0.0 0.0 0.01 0.01 0.01 98 1006.5
20260507144538 42 178 0.0 2.0 0.01 0.01 0.01 97 1006.7
20260507143036 42 202 0.0 1.0 0.01 0.01 0.01 98 1006.8
20260507141531 42 202 0.0 0.0 0.00 0.00 0.00 98 1006.8
20260507140029 42 202 0.0 2.0 0.00 0.00 0.00 98 1006.6
20260507134528 42 94 0.0 0.0 0.00 0.00 0.00 98 1006.6
20260507133025 42 94 0.0 0.0 0.00 0.00 0.00 98 1006.4
20260507131534 42 94 0.0 0.0 0.00 0.00 0.00 98 1006.7
20260507130024 42 94 0.0 0.0 0.00 0.00 0.00 98 1006.8
20260507124525 42 94 0.0 0.0 0.00 0.00 0.00 98 1006.7
20260507123026 42 94 0.0 0.0 0.00 0.00 0.00 98 1006.7
20260507121522 41 94 0.0 0.0 0.00 0.00 0.00 98 1006.5
20260507120021 41 94 0.0 0.0 0.00 0.00 0.00 98 1006.5
20260507114520 40 94 0.0 0.0 0.00 0.00 0.00 98 1006.5
20260507113020 40 94 0.0 0.0 0.00 0.00 0.00 98 1006.3
20260507111520 40 94 0.0 0.0 0.00 0.00 0.00 98 1006.4
20260507110019 40 94 0.0 0.0 0.00 0.00 0.00 98 1006.5
20260507104526 40 94 0.0 0.0 0.00 0.00 0.00 98 1006.5
20260507103022 40 94 0.0 0.0 0.00 0.00 0.00 98 1006.5
20260507101529 40 94 0.0 0.0 0.00 0.00 0.00 98 1006.3
20260507100027 40 94 0.0 0.0 0.00 0.00 0.00 98 1006.2
20260507094516 39 94 0.0 0.0 0.00 0.00 0.00 98 1006.3
20260507093018 39 94 0.0 0.0 0.00 0.00 0.00 98 1006.2
20260507091533 39 94 0.0 0.0 0.00 0.00 0.00 98 1006.2
20260507090012 39 94 0.0 0.0 0.00 0.00 0.00 98 1006.3
20260507084511 39 94 0.0 0.0 0.00 0.00 0.00 98 1006.3
20260507083015 39 94 0.0 0.0 0.00 0.00 0.00 98 1006.3
20260507081508 40 94 0.0 0.0 0.00 0.00 0.00 98 1006.1
20260507080007 40 94 0.0 0.0 0.00 0.00 0.00 98 1005.8
20260507074509 41 94 0.0 0.0 0.00 0.00 0.00 98 1006.0
20260507073005 41 94 0.0 0.0 0.00 0.00 0.00 98 1005.9
20260507071505 41 94 0.0 0.0 0.00 0.00 0.00 98 1005.7
20260507070139 41 94 0.0 0.0 0.00 0.00 0.00 98 1005.8
20260507064603 41 94 0.0 0.0 0.00 0.00 0.00 98 1005.8
20260507063102 42 94 0.0 0.0 0.00 0.00 0.00 98 1005.8
20260507061559 42 94 0.0 0.0 0.00 0.00 0.00 98 1006.0
20260507060057 42 94 0.0 0.0 0.00 0.00 0.00 98 1005.9
20260507054604 42 94 0.0 0.0 0.00 0.00 0.00 98 1005.8
20260507053056 42 94 0.0 0.0 0.00 0.00 0.00 98 1006.0
20260507051554 42 94 0.0 0.0 0.00 0.00 0.00 98 1006.1
20260507050053 42 85 0.0 0.0 0.00 0.00 0.00 98 1006.0
20260507044554 42 85 0.0 0.0 0.00 0.00 0.00 98 1005.9
20260507043051 42 85 0.0 2.0 0.00 0.00 0.00 98 1006.0
20260507041550 43 343 0.0 0.0 0.00 0.00 0.00 98 1005.9
20260507040050 43 343 0.0 0.0 0.00 0.00 0.00 98 1006.0
20260507034549 43 343 0.0 0.0 0.00 0.00 0.00 98 1005.6
20260507033047 43 343 0.0 0.0 0.00 0.00 0.00 98 1006.3
20260507031546 43 343 0.0 0.0 0.00 0.00 0.00 98 1006.2
20260507030047 43 343 0.0 0.0 0.00 0.00 0.00 98 1006.3
20260507024545 43 343 0.0 0.0 0.00 0.00 0.00 98 1006.5
20260507023044 43 343 0.0 0.0 0.00 0.00 0.00 98 1006.6
20260507021543 43 343 0.0 0.0 0.00 0.00 0.00 98 1006.7
20260507020048 43 343 0.0 0.0 0.00 0.00 0.00 98 1006.7
20260507014552 43 342 0.0 3.0 0.00 0.00 0.00 98 1006.3
20260507013038 43 343 0.0 0.0 0.00 0.00 0.00 98 1006.1
20260507011537 43 343 0.0 2.0 0.00 0.00 0.00 98 1005.9
20260507010036 43 343 0.0 2.0 0.00 0.00 0.00 98 1006.1
20260507004536 43 343 0.0 0.0 0.00 0.00 0.00 98 1005.6
20260507003034 43 343 0.0 0.0 0.00 0.00 0.00 98 1005.5
20260507001535 44 343 0.0 0.0 0.00 0.00 0.00 98 1005.0
20260507000032 44 343 0.0 0.0 0.00 0.00 0.00 98 1005.0
20260506234529 44 343 0.0 0.0 0.00 0.00 0.00 98 1005.0
20260506233028 45 343 0.0 1.0 0.00 0.00 0.00 98 1004.9
20260506231527 45 343 0.0 0.0 0.00 0.00 0.00 98 1004.9
20260506230025 45 343 0.0 0.0 0.00 0.00 0.00 98 1004.8
20260506224524 45 342 0.0 0.0 0.00 0.00 0.00 98 1004.6
20260506223023 45 343 0.0 0.0 0.00 0.00 0.00 98 1004.3
20260506221524 45 343 0.0 0.0 0.00 0.00 0.00 98 1004.3
20260506220029 46 343 0.0 0.0 0.00 0.00 0.00 98 1004.0
20260506214521 46 342 0.0 3.0 0.00 0.04 0.00 98 1003.9
20260506213019 46 342 0.0 3.0 0.00 0.04 0.00 98 1003.8
20260506211516 46 344 1.0 4.0 0.00 0.04 0.00 98 1003.6
20260506210016 47 329 0.0 3.0 0.00 0.04 0.00 98 1003.4
20260506204513 47 355 0.0 3.0 0.00 0.04 0.00 98 1003.4
20260506203011 47 355 0.0 3.0 0.00 0.04 0.00 98 1003.0
20260506201510 48 355 0.0 3.0 0.00 0.04 0.00 98 1003.0
20260506200009 48 34 0.0 2.0 0.00 0.04 0.00 98 1003.0
20260506194506 48 34 0.0 1.0 0.00 0.04 0.00 98 1003.2
20260506193005 49 50 0.0 2.0 0.00 0.04 0.00 98 1003.3
20260506191508 49 50 0.0 3.0 0.00 0.04 0.00 98 1003.2
20260506190059 50 360 0.0 1.0 0.00 0.04 0.00 98 1003.4
20260506184601 51 360 0.0 0.0 0.00 0.04 0.00 98 1003.3
20260506183055 51 274 0.0 1.0 0.00 0.04 0.00 98 1003.3